N11816 KRAP-KPIR

Flight info

Callsign N11816
Flight time 0h 50m
Altitude 5500
Route LOOP AROUND RUSHMORE THEN TOUR OF BADLANDS
Aircraft STAR/L-SDFGRWY/S

Departure

Time 2026-05-06 02:10
Airport Rapid City Regional Airport (KRAP)

Arrival

Time 2026-05-06 03:00
Airport Pierre Regional Airport (KPIR)
Time Latitude Longitude Altitude Speed Heading
2026-05-06 02:06 44.03951 -103.05633 3152 ft 27 kts 152°
2026-05-06 02:06 44.03792 -103.05512 3150 ft 35 kts 150°
2026-05-06 02:06 44.03552 -103.05340 3147 ft 21 kts 150°
2026-05-06 02:07 44.03539 -103.05329 3147 ft 0 kts 150°
2026-05-06 02:07 44.03536 -103.05327 3147 ft 4 kts 150°
2026-05-06 02:08 44.03487 -103.05289 3146 ft 10 kts 150°
2026-05-06 02:08 44.03408 -103.05230 3145 ft 20 kts 152°
2026-05-06 02:08 44.03263 -103.05118 3143 ft 16 kts 136°
2026-05-06 02:08 44.03281 -103.04982 3140 ft 15 kts 41°
2026-05-06 02:09 44.03382 -103.05017 3141 ft 24 kts 333°
2026-05-06 02:09 44.03666 -103.05228 3148 ft 70 kts 332°
2026-05-06 02:09 44.04263 -103.05667 3179 ft 119 kts 333°
2026-05-06 02:09 44.05031 -103.06244 3518 ft 140 kts 332°
2026-05-06 02:10 44.05913 -103.06927 4281 ft 142 kts 333°
2026-05-06 02:10 44.06572 -103.07925 5069 ft 156 kts 294°
2026-05-06 02:10 44.06516 -103.09581 5297 ft 198 kts 257°
2026-05-06 02:10 44.05932 -103.11515 5408 ft 236 kts 250°
2026-05-06 02:11 44.05181 -103.13697 5484 ft 262 kts 248°
2026-05-06 02:11 44.04349 -103.16021 5511 ft 271 kts 247°
2026-05-06 02:11 44.03498 -103.18347 5521 ft 268 kts 247°
2026-05-06 02:11 44.02655 -103.20633 5526 ft 265 kts 246°
2026-05-06 02:12 44.01815 -103.22916 5525 ft 264 kts 247°
2026-05-06 02:12 44.00978 -103.25178 5526 ft 263 kts 247°
2026-05-06 02:12 44.00136 -103.27435 5528 ft 263 kts 246°
2026-05-06 02:12 43.99301 -103.29691 5523 ft 262 kts 246°
2026-05-06 02:13 43.98477 -103.31955 5519 ft 263 kts 247°
2026-05-06 02:13 43.97659 -103.34191 5511 ft 263 kts 247°
2026-05-06 02:13 43.96825 -103.36480 5523 ft 262 kts 247°
2026-05-06 02:13 43.96007 -103.38738 5539 ft 261 kts 246°
2026-05-06 02:14 43.95201 -103.40979 5566 ft 258 kts 247°
2026-05-06 02:14 43.94420 -103.43161 5922 ft 244 kts 248°
2026-05-06 02:14 43.93622 -103.45194 6174 ft 242 kts 240°
2026-05-06 02:14 43.92378 -103.46655 6795 ft 237 kts 205°
2026-05-06 02:15 43.90747 -103.47273 6790 ft 252 kts 197°
2026-05-06 02:15 43.89011 -103.47685 7034 ft 248 kts 180°
2026-05-06 02:15 43.87339 -103.47142 7164 ft 258 kts 154°
2026-05-06 02:15 43.86069 -103.45219 6322 ft 280 kts 112°
2026-05-06 02:16 43.85449 -103.42802 6769 ft 263 kts 105°
2026-05-06 02:16 43.84903 -103.40342 6603 ft 267 kts 104°
2026-05-06 02:16 43.84348 -103.37891 6627 ft 267 kts 104°
2026-05-06 02:16 43.83768 -103.35419 6498 ft 271 kts 105°
2026-05-06 02:17 43.83238 -103.32914 6364 ft 271 kts 101°
2026-05-06 02:17 43.82840 -103.30376 6226 ft 268 kts 99°
2026-05-06 02:17 43.82499 -103.27861 6102 ft 264 kts 98°
2026-05-06 02:17 43.82184 -103.25396 5970 ft 262 kts 97°
2026-05-06 02:18 43.81875 -103.22923 5844 ft 260 kts 97°
2026-05-06 02:18 43.81569 -103.20455 5732 ft 259 kts 97°
2026-05-06 02:18 43.81265 -103.17999 5637 ft 258 kts 97°
2026-05-06 02:18 43.80963 -103.15560 5596 ft 256 kts 97°
2026-05-06 02:19 43.80665 -103.13139 5579 ft 253 kts 97°
2026-05-06 02:19 43.80358 -103.10745 5543 ft 252 kts 97°
2026-05-06 02:19 43.80040 -103.08361 5535 ft 251 kts 97°
2026-05-06 02:19 43.79720 -103.05989 5534 ft 250 kts 97°
2026-05-06 02:20 43.79077 -103.01262 5533 ft 249 kts 97°
2026-05-06 02:20 43.78757 -102.98912 5535 ft 248 kts 97°
2026-05-06 02:20 43.78438 -102.96566 5535 ft 248 kts 97°
2026-05-06 02:21 43.78120 -102.94215 5535 ft 248 kts 97°
2026-05-06 02:21 43.77804 -102.91860 5540 ft 249 kts 97°
2026-05-06 02:21 43.77489 -102.89501 5534 ft 249 kts 97°
2026-05-06 02:21 43.77176 -102.87174 5536 ft 249 kts 97°
2026-05-06 02:22 43.76861 -102.84816 5539 ft 249 kts 97°
2026-05-06 02:22 43.76542 -102.82425 5541 ft 250 kts 97°
2026-05-06 02:22 43.76232 -102.80095 5542 ft 250 kts 97°
2026-05-06 02:22 43.75916 -102.77733 5544 ft 249 kts 97°
2026-05-06 02:23 43.75603 -102.75375 5549 ft 249 kts 97°
2026-05-06 02:23 43.75298 -102.73017 5549 ft 249 kts 97°
2026-05-06 02:23 43.75099 -102.70650 5546 ft 247 kts 90°
2026-05-06 02:23 43.75042 -102.68282 5545 ft 246 kts 88°
2026-05-06 02:24 43.75143 -102.65935 5543 ft 244 kts 80°
2026-05-06 02:24 43.75378 -102.63615 5542 ft 243 kts 78°
2026-05-06 02:24 43.75649 -102.61303 5541 ft 243 kts 77°
2026-05-06 02:24 43.75935 -102.59006 5543 ft 242 kts 77°
2026-05-06 02:25 43.76225 -102.56708 5543 ft 243 kts 77°
2026-05-06 02:25 43.76522 -102.54403 5542 ft 243 kts 76°
2026-05-06 02:25 43.76816 -102.52104 5543 ft 243 kts 76°
2026-05-06 02:25 43.77112 -102.49804 5542 ft 243 kts 76°
2026-05-06 02:26 43.77405 -102.47504 5542 ft 243 kts 77°
2026-05-06 02:26 43.77701 -102.45200 5542 ft 242 kts 76°
2026-05-06 02:26 43.77991 -102.42930 5542 ft 243 kts 76°
2026-05-06 02:26 43.78286 -102.40626 5548 ft 243 kts 76°
2026-05-06 02:27 43.78583 -102.38321 5542 ft 243 kts 76°
2026-05-06 02:27 43.78880 -102.36015 5544 ft 244 kts 76°
2026-05-06 02:27 43.79182 -102.33706 5542 ft 244 kts 76°
2026-05-06 02:27 43.79485 -102.31402 5539 ft 244 kts 77°
2026-05-06 02:28 43.79791 -102.29095 5542 ft 243 kts 76°
2026-05-06 02:28 43.80097 -102.26792 5542 ft 243 kts 76°
2026-05-06 02:28 43.80406 -102.24492 5542 ft 243 kts 76°
2026-05-06 02:28 43.80712 -102.22195 5542 ft 243 kts 76°
2026-05-06 02:29 43.81020 -102.19902 5540 ft 242 kts 76°
2026-05-06 02:29 43.81326 -102.17609 5539 ft 242 kts 76°
2026-05-06 02:29 43.81633 -102.15320 5540 ft 242 kts 76°
2026-05-06 02:29 43.81951 -102.13035 5540 ft 241 kts 73°
2026-05-06 02:30 43.82434 -102.10820 5543 ft 239 kts 67°
2026-05-06 02:30 43.83267 -102.08867 5543 ft 235 kts 50°
2026-05-06 02:30 43.84248 -102.07049 5543 ft 236 kts 50°
2026-05-06 02:30 43.85210 -102.05202 5543 ft 237 kts 52°
2026-05-06 02:31 43.86119 -102.03325 5545 ft 238 kts 54°
2026-05-06 02:31 43.86995 -102.01372 5541 ft 239 kts 56°
2026-05-06 02:31 43.87836 -101.99386 5536 ft 239 kts 57°
2026-05-06 02:31 43.88667 -101.97385 5532 ft 239 kts 57°
2026-05-06 02:32 43.89485 -101.95376 5531 ft 239 kts 59°
2026-05-06 02:32 43.90156 -101.93254 5526 ft 241 kts 65°
2026-05-06 02:32 43.90757 -101.91090 5524 ft 240 kts 65°
2026-05-06 02:32 43.91406 -101.88953 5520 ft 240 kts 63°
2026-05-06 02:33 43.92062 -101.86817 5516 ft 240 kts 65°
2026-05-06 02:33 43.92480 -101.85395 5515 ft 240 kts 65°
2026-05-06 02:33 43.93981 -101.80422 5510 ft 242 kts 64°
2026-05-06 02:34 43.94628 -101.78255 5507 ft 243 kts 65°
2026-05-06 02:34 43.95276 -101.76082 5505 ft 244 kts 64°
2026-05-06 02:34 43.95933 -101.73909 5502 ft 244 kts 65°
2026-05-06 02:34 43.96586 -101.71723 5498 ft 245 kts 65°
2026-05-06 02:35 43.97239 -101.69542 5496 ft 245 kts 64°
2026-05-06 02:35 43.97891 -101.67361 5501 ft 244 kts 64°
2026-05-06 02:35 43.98541 -101.65177 5499 ft 245 kts 64°
2026-05-06 02:35 43.99196 -101.62995 5495 ft 245 kts 64°
2026-05-06 02:36 43.99851 -101.60809 5499 ft 245 kts 65°
2026-05-06 02:36 44.00498 -101.58617 5496 ft 245 kts 65°
2026-05-06 02:36 44.01150 -101.56430 5495 ft 245 kts 64°
2026-05-06 02:36 44.01806 -101.54242 5494 ft 245 kts 64°
2026-05-06 02:37 44.02239 -101.52795 5495 ft 245 kts 64°
2026-05-06 02:37 44.03101 -101.49868 5493 ft 245 kts 64°
2026-05-06 02:37 44.03535 -101.48420 5495 ft 245 kts 64°
2026-05-06 02:37 44.04183 -101.46233 5502 ft 245 kts 64°
2026-05-06 02:38 44.04834 -101.44042 5499 ft 245 kts 64°
2026-05-06 02:38 44.05692 -101.41147 5499 ft 244 kts 64°
2026-05-06 02:38 44.06126 -101.39672 5501 ft 244 kts 64°
2026-05-06 02:38 44.06773 -101.37494 5504 ft 244 kts 64°
2026-05-06 02:39 44.07631 -101.34603 5505 ft 244 kts 64°
2026-05-06 02:39 44.08068 -101.33131 5506 ft 244 kts 64°
2026-05-06 02:39 44.08715 -101.30949 5515 ft 243 kts 64°
2026-05-06 02:39 44.09353 -101.28801 5515 ft 244 kts 64°
2026-05-06 02:40 44.10001 -101.26619 5516 ft 244 kts 64°
2026-05-06 02:40 44.10649 -101.24439 5527 ft 244 kts 64°
2026-05-06 02:40 44.11298 -101.22257 5528 ft 244 kts 64°
2026-05-06 02:40 44.11948 -101.20071 5525 ft 244 kts 64°
2026-05-06 02:41 44.12457 -101.17823 5528 ft 247 kts 82°
2026-05-06 02:41 44.12401 -101.15427 5531 ft 249 kts 92°
2026-05-06 02:41 44.12211 -101.13017 5530 ft 250 kts 95°
2026-05-06 02:41 44.11984 -101.10610 5479 ft 253 kts 95°
2026-05-06 02:42 44.11740 -101.08191 5346 ft 252 kts 95°
2026-05-06 02:42 44.11489 -101.05784 5219 ft 250 kts 96°
2026-05-06 02:42 44.11239 -101.03391 5090 ft 250 kts 96°
2026-05-06 02:42 44.10992 -101.01004 4956 ft 249 kts 96°
2026-05-06 02:43 44.10742 -100.98625 4830 ft 248 kts 96°
2026-05-06 02:43 44.10489 -100.96251 4697 ft 247 kts 96°
2026-05-06 02:43 44.10240 -100.93889 4566 ft 246 kts 96°
2026-05-06 02:43 44.09992 -100.91533 4435 ft 246 kts 95°
2026-05-06 02:44 44.09745 -100.89180 4305 ft 246 kts 96°
2026-05-06 02:44 44.09501 -100.86829 4169 ft 245 kts 95°
2026-05-06 02:44 44.09255 -100.84480 4037 ft 245 kts 95°
2026-05-06 02:44 44.09007 -100.82152 3906 ft 243 kts 95°
2026-05-06 02:45 44.08762 -100.79835 3779 ft 241 kts 95°
2026-05-06 02:45 44.08569 -100.77534 3694 ft 235 kts 85°
2026-05-06 02:45 44.09035 -100.75441 3657 ft 223 kts 54°
2026-05-06 02:45 44.09924 -100.73741 3639 ft 217 kts 49°
2026-05-06 02:46 44.10560 -100.71863 3627 ft 218 kts 78°
2026-05-06 02:46 44.10539 -100.69754 3624 ft 218 kts 91°
2026-05-06 02:46 44.10367 -100.67668 3622 ft 216 kts 94°
2026-05-06 02:46 44.10156 -100.65602 3624 ft 215 kts 95°
2026-05-06 02:47 44.09938 -100.63560 3620 ft 212 kts 95°
2026-05-06 02:47 44.09716 -100.61539 3620 ft 211 kts 95°
2026-05-06 02:47 44.09492 -100.59521 3622 ft 210 kts 95°
2026-05-06 02:47 44.09269 -100.57518 3619 ft 209 kts 95°
2026-05-06 02:48 44.09051 -100.55528 3624 ft 208 kts 95°
2026-05-06 02:48 44.08837 -100.53541 3623 ft 207 kts 95°
2026-05-06 02:48 44.08623 -100.51565 3622 ft 206 kts 95°
2026-05-06 02:48 44.08412 -100.49600 3626 ft 205 kts 95°
2026-05-06 02:49 44.08203 -100.47639 3619 ft 204 kts 95°
2026-05-06 02:49 44.07997 -100.45713 3623 ft 203 kts 95°
2026-05-06 02:49 44.07794 -100.43776 3624 ft 202 kts 95°
2026-05-06 02:49 44.07594 -100.41844 3624 ft 202 kts 95°
2026-05-06 02:50 44.07392 -100.39911 3624 ft 201 kts 95°
2026-05-06 02:50 44.07191 -100.37986 3624 ft 201 kts 95°
2026-05-06 02:50 44.06991 -100.36064 3619 ft 201 kts 95°
2026-05-06 02:50 44.06791 -100.34143 3619 ft 200 kts 95°
2026-05-06 02:51 44.06619 -100.32232 3619 ft 198 kts 90°
2026-05-06 02:51 44.06584 -100.30318 3620 ft 197 kts 87°
2026-05-06 02:51 44.06595 -100.28416 3620 ft 196 kts 85°
2026-05-06 02:51 44.06725 -100.26541 3621 ft 194 kts 78°
2026-05-06 02:52 44.06958 -100.24697 3619 ft 192 kts 72°
2026-05-06 02:52 44.07584 -100.23137 3624 ft 186 kts 50°
2026-05-06 02:52 44.08385 -100.21722 3614 ft 186 kts 47°
2026-05-06 02:52 44.09223 -100.20346 3627 ft 187 kts 46°
2026-05-06 02:53 44.10089 -100.18988 3622 ft 187 kts 41°
2026-05-06 02:53 44.11228 -100.18269 3617 ft 180 kts
2026-05-06 02:53 44.12481 -100.18181 3617 ft 180 kts 359°
2026-05-06 02:53 44.13736 -100.18203 3620 ft 180 kts 357°
2026-05-06 02:54 44.14991 -100.18263 3615 ft 180 kts 356°
2026-05-06 02:54 44.16242 -100.18340 3620 ft 180 kts 356°
2026-05-06 02:54 44.17492 -100.18423 3618 ft 180 kts 356°
2026-05-06 02:54 44.18741 -100.18514 3618 ft 180 kts 356°
2026-05-06 02:55 44.19993 -100.18607 3621 ft 180 kts 356°
2026-05-06 02:55 44.21248 -100.18696 3621 ft 180 kts 356°
2026-05-06 02:55 44.22504 -100.18777 3620 ft 181 kts 356°
2026-05-06 02:55 44.23761 -100.18860 3618 ft 181 kts 356°
2026-05-06 02:56 44.25018 -100.18946 3615 ft 181 kts 356°
2026-05-06 02:56 44.26276 -100.19033 3615 ft 181 kts 356°
2026-05-06 02:56 44.27534 -100.19119 3612 ft 181 kts 356°
2026-05-06 02:56 44.28775 -100.19208 3616 ft 180 kts 355°
2026-05-06 02:57 44.29926 -100.19785 3606 ft 171 kts 330°
2026-05-06 02:57 44.30849 -100.20637 3390 ft 142 kts 323°
2026-05-06 02:57 44.31529 -100.21431 3215 ft 116 kts 321°
2026-05-06 02:57 44.32098 -100.22119 3081 ft 102 kts 321°
2026-05-06 02:58 44.32625 -100.22727 2939 ft 96 kts 323°
2026-05-06 02:58 44.33222 -100.23385 2799 ft 121 kts 323°
2026-05-06 02:58 44.33912 -100.24146 2602 ft 128 kts 321°
2026-05-06 02:58 44.34553 -100.24900 2381 ft 115 kts 322°
2026-05-06 02:59 44.35157 -100.25588 2165 ft 108 kts 322°
2026-05-06 02:59 44.35737 -100.26224 2094 ft 107 kts 322°
2026-05-06 02:59 44.36308 -100.26893 1924 ft 108 kts 322°
2026-05-06 02:59 44.36869 -100.27533 1798 ft 104 kts 322°
2026-05-06 03:00 44.37403 -100.28145 1720 ft 88 kts 321°
2026-05-06 03:00 44.37788 -100.28580 1724 ft 46 kts 321°
2026-05-06 03:00 44.37989 -100.28808 1725 ft 39 kts 322°
2026-05-06 03:00 44.38116 -100.28986 1728 ft 22 kts 279°
2026-05-06 03:01 44.38041 -100.29160 1724 ft 18 kts 238°
2026-05-06 03:01 44.38058 -100.29228 1725 ft 0 kts 321°